Temp
11 10 10 10 11 11 10 12 12 12 12 11 11 11 11 10 10 10 10 9 9 9 9 9 9 9 9 9 9 9 9 8 8 8 8 8 8 8 8 8 9 9 9 9 9 8 8 8 9
11 11 10 10 11 12 12 11 12 12 13 12 11 11 11 11 11 11 9 9 9 9 9 9 9 9 9 9 9 9 9 8 8 8 8 8 8 8 8 9 9 9 9 9 9 9 9 9 9
12 11 11 10 13 13 12 11 12 12 13 12 13 11 12 12 10 10 10 10 9 9 9 9 9 9 9 9 9 9 9 9 8 8 8 8 8 8 8 8 9 9 9 9 9 8 9 8 8
10 10 11 10 12 13 12 12 12 12 12 12 13 12 12 11 11 11 10 10 10 9 9 10 10 10 10 9 9 9 9 9 9 8 8 8 8 8 8 8 8 8 9 8 8 8 8 8 8
11 10 11 10 11 12 12 14 14 12 13 12 13 12 12 10 11 11 11 10 10 10 10 10 10 10 9 9 9 9 9 9 9 8 8 8 8 8 8 8 8 8 8 8 8 8 8 8 8
13 12 11 11 12 12 12 14 14 13 14 13 13 13 12 11 11 11 11 10 10 10 10 10 10 10 9 9 9 9 9 9 9 8 8 8 8 8 8 8 8 8 8 8 8 8 8 8 8
12 13 13 12 13 11 13 13 14 14 14 13 14 13 11 11 11 11 11 10 10 10 10 10 10 10 10 10 10 10 9 9 9 9 8 8 8 8 8 9 8 8 8 8 8 8 8 8 8
13 14 14 15 14 13 14 14 14 14 13 13 13 14 13 11 11 11 11 10 10 10 10 10 10 10 10 10 10 10 9 9 9 9 9 8 8 8 9 9 8 9 9 8 8 8 8 8 8
13 14 16 16 15 14 13 14 12 13 14 12 13 13 13 12 11 12 11 10 11 10 10 10 10 10 10 10 10 10 9 9 9 9 9 9 9 9 8 9 9 8 8 8 8 8 7 8 8
13 14 15 16 15 14 14 13 15 13 13 12 13 12 12 12 12 12 12 12 11 11 11 10 11 10 10 10 10 9 9 9 9 9 9 9 9 9 9 9 9 9 8 8 8 8 8 7 8
14 14 14 15 15 15 14 14 14 14 14 14 14 13 13 12 11 11 11 12 12 11 11 11 11 10 10 10 10 9 9 9 9 9 9 9 9 9 9 9 9 9 8 8 8 8 8 8 8
13 14 14 16 16 15 15 15 15 15 15 14 14 14 13 12 12 11 12 11 12 12 11 11 11 10 10 10 10 10 9 9 9 10 9 9 10 9 9 9 9 9 8 9 9 8 8 8 8
14 14 14 15 16 16 15 15 15 14 14 13 13 13 13 13 12 11 11 12 11 12 12 11 11 11 10 10 10 10 10 9 10 10 9 10 10 9 9 9 9 10 9 10 9 9 9 8 8
15 15 15 15 16 16 16 15 15 14 15 14 14 14 13 13 12 11 11 11 12 11 11 12 12 11 11 10 10 11 11 10 10 10 10 11 10 9 9 9 9 10 10 9 9 8 8 9 8
15 15 16 17 17 16 16 16 15 15 14 14 14 13 14 13 12 11 12 12 12 12 12 12 12 12 11 11 10 11 11 10 11 10 10 10 9 9 9 9 9 9 9 10 9 8 9 8 8
15 15 16 18 17 17 16 15 15 15 14 14 13 13 13 13 13 12 11 11 12 12 13 12 12 12 12 12 11 11 11 11 11 10 10 9 9 9 9 9 9 9 9 9 9 9 8 9 9
15 15 16 18 16 17 16 16 14 15 14 14 13 13 13 13 13 12 12 11 12 13 12 12 12 12 12 12 11 11 11 11 11 10 10 10 9 9 9 10 9 9 9 9 10 10 10 10 10
15 15 16 17 18 17 16 17 14 15 14 14 15 14 14 14 14 13 12 11 12 13 13 12 13 12 12 12 12 11 11 11 11 10 10 10 9 9 9 10 10 10 10 10 11 11 11 10 10
15 16 16 18 17 17 17 17 16 15 14 15 15 14 14 14 15 13 12 10 11 12 13 13 13 13 13 13 12 12 12 11 11 11 11 11 10 10 9 10 10 10 10 11 11 11 11 10 10
15 16 17 17 17 16 18 18 17 16 16 16 16 15 14 14 14 14 14 13 13 14 14 14 13 13 13 13 12 12 11 11 10 10 11 11 10 10 10 11 11 11 11 11 11 11 11 11 11
14 15 17 16 17 17 17 16 16 15 15 15 15 16 15 15 15 15 14 14 14 14 14 14 14 14 13 13 12 12 12 12 12 11 11 12 11 11 11 11 11 11 11 11 11 11 11 11 11
14 15 16 16 16 16 16 16 17 16 15 15 15 16 16 15 15 15 14 14 14 14 14 14 14 14 13 13 13 13 12 12 12 11 11 12 12 12 12 12 11 11 11 11 11 11 11 10 10
14 15 15 15 16 16 17 16 18 17 16 16 16 16 16 16 15 16 16 15 15 14 14 14 14 14 14 13 13 13 13 13 12 12 12 12 12 12 12 11 11 11 11 11 11 10 10 10 9
15 15 15 16 16 14 16 17 17 17 18 17 17 16 16 16 16 16 16 16 15 15 14 13 13 14 14 14 14 13 13 13 13 13 13 12 12 12 12 11 11 11 11 11 10 10 10 9 10
15 15 14 13 14 13 17 17 17 18 18 18 18 17 17 17 16 16 16 16 16 16 15 14 13 13 14 14 14 14 13 13 13 13 13 13 12 12 12 11 11 11 11 11 10 10 10 10 10
15 15 14 11 11 12 17 15 17 18 19 19 18 18 17 17 17 17 17 18 17 16 16 16 15 14 14 14 14 14 13 14 14 14 13 13 12 12 12 11 11 11 11 11 10 10 10 10 9
15 15 16 16 16 14 16 18 18 18 19 19 19 18 17 17 17 18 18 18 17 17 17 17 16 15 13 14 14 14 14 14 14 13 13 13 12 12 12 11 11 11 11 11 11 10 10 9 9
15 16 16 15 13 13 15 17 18 19 19 19 19 19 18 18 18 19 18 18 18 18 17 16 17 16 15 14 14 14 14 14 14 13 13 13 12 12 12 12 11 11 11 11 11 10 10 9 9
15 15 16 17 16 14 10 16 17 18 19 19 19 20 19 18 18 18 18 18 18 18 18 16 16 16 16 16 15 15 14 14 14 13 13 13 13 12 12 12 11 11 11 11 11 10 10 9 9
16 16 16 16 16 16 16 16 17 18 18 19 19 19 19 19 19 18 19 19 18 18 18 17 16 16 17 16 15 15 15 14 14 14 13 13 13 13 12 12 12 11 11 11 11 11 10 10 10
Height
3172 3170 3168 3168 3170 3167 3167 3166 3166 3167 3165 3163 3163 3164 3164 3162 3164 3167 3165 3170 3172 3175 3178 3182 3184 3187 3191 3194 3197 3199 3201 3204 3205 3206 3208 3208 3208 3208 3208 3208 3208 3208 3208 3208 3207 3206 3204 3204 3204
3173 3172 3170 3167 3169 3166 3168 3169 3168 3169 3166 3164 3165 3165 3166 3165 3165 3165 3167 3172 3176 3178 3181 3185 3188 3191 3194 3196 3199 3201 3203 3205 3206 3208 3209 3209 3209 3209 3210 3210 3210 3210 3210 3209 3208 3207 3206 3206 3206
3174 3176 3170 3169 3167 3168 3169 3170 3171 3169 3169 3167 3166 3167 3168 3168 3171 3171 3173 3175 3179 3182 3185 3188 3191 3194 3196 3199 3201 3203 3205 3207 3208 3210 3210 3211 3211 3211 3211 3211 3211 3211 3211 3210 3209 3208 3209 3209 3208
3176 3176 3169 3169 3168 3170 3169 3172 3173 3171 3170 3169 3167 3168 3171 3173 3176 3176 3178 3181 3183 3186 3188 3191 3194 3196 3199 3200 3202 3205 3207 3208 3210 3211 3212 3213 3212 3212 3212 3212 3212 3213 3212 3211 3210 3210 3210 3210 3209
3174 3174 3168 3169 3168 3172 3173 3171 3173 3172 3171 3171 3172 3170 3173 3177 3179 3179 3181 3184 3186 3188 3191 3193 3196 3198 3200 3202 3204 3206 3208 3210 3212 3212 3213 3213 3213 3213 3213 3214 3214 3214 3213 3212 3211 3211 3211 3211 3210
3171 3171 3170 3171 3170 3173 3174 3173 3173 3174 3174 3173 3175 3173 3176 3180 3182 3183 3184 3186 3189 3192 3193 3195 3198 3200 3202 3204 3206 3208 3210 3212 3213 3214 3214 3215 3215 3215 3215 3215 3215 3215 3214 3214 3213 3213 3213 3212 3211
3172 3171 3170 3170 3168 3174 3172 3174 3174 3176 3177 3175 3177 3176 3179 3182 3185 3185 3186 3189 3190 3193 3195 3197 3199 3201 3203 3206 3208 3210 3212 3212 3214 3215 3215 3217 3217 3217 3216 3216 3216 3216 3216 3215 3215 3215 3213 3213 3212
3174 3173 3170 3169 3172 3174 3173 3175 3176 3178 3177 3178 3181 3180 3179 3181 3185 3186 3188 3190 3192 3194 3196 3199 3201 3203 3206 3208 3210 3212 3213 3214 3215 3216 3217 3218 3218 3218 3219 3218 3218 3218 3217 3217 3217 3216 3215 3214 3213
3174 3172 3171 3171 3172 3172 3175 3175 3178 3179 3179 3181 3181 3182 3182 3182 3185 3187 3188 3190 3192 3194 3197 3200 3202 3205 3207 3209 3211 3213 3214 3215 3216 3217 3218 3219 3219 3220 3220 3220 3219 3218 3218 3218 3217 3217 3216 3215 3214
3172 3171 3172 3173 3171 3170 3169 3170 3171 3176 3178 3178 3180 3181 3182 3183 3185 3187 3188 3190 3192 3194 3196 3201 3203 3206 3208 3210 3212 3214 3215 3216 3217 3218 3219 3220 3220 3220 3220 3220 3219 3219 3219 3218 3218 3217 3217 3215 3214
3169 3167 3172 3172 3173 3174 3172 3172 3172 3175 3176 3176 3178 3180 3182 3183 3185 3188 3191 3193 3194 3195 3198 3200 3203 3206 3209 3211 3212 3214 3215 3216 3216 3218 3219 3219 3220 3220 3219 3219 3220 3219 3219 3219 3219 3217 3216 3215 3214
3165 3164 3170 3170 3172 3174 3173 3170 3170 3172 3175 3177 3180 3181 3182 3182 3184 3186 3189 3192 3193 3195 3198 3200 3203 3206 3208 3210 3212 3214 3214 3215 3216 3217 3217 3219 3219 3219 3220 3219 3219 3218 3218 3218 3218 3216 3215 3214 3212
3159 3164 3168 3173 3175 3174 3175 3172 3170 3171 3174 3177 3179 3180 3181 3183 3184 3187 3189 3192 3194 3196 3198 3200 3203 3205 3208 3210 3212 3212 3213 3214 3215 3216 3217 3218 3218 3218 3218 3219 3218 3218 3218 3218 3217 3216 3214 3213 3211
3163 3163 3165 3170 3170 3174 3173 3176 3175 3173 3174 3177 3177 3179 3180 3182 3183 3186 3188 3191 3194 3197 3199 3200 3202 3205 3207 3209 3211 3212 3212 3213 3214 3215 3216 3216 3216 3217 3217 3218 3217 3217 3216 3215 3215 3214 3213 3212 3211
3160 3160 3158 3158 3161 3166 3170 3173 3172 3172 3173 3175 3176 3177 3179 3181 3182 3184 3188 3190 3193 3196 3199 3201 3203 3205 3207 3208 3210 3211 3211 3212 3213 3214 3215 3216 3215 3216 3217 3217 3217 3216 3215 3215 3214 3213 3212 3211 3209
3156 3156 3154 3155 3157 3161 3163 3165 3166 3166 3170 3171 3172 3174 3175 3178 3181 3183 3186 3189 3191 3194 3197 3199 3201 3204 3205 3207 3208 3209 3209 3210 3211 3213 3214 3214 3215 3216 3216 3216 3215 3215 3214 3213 3213 3212 3210 3209 3207
3152 3151 3152 3151 3159 3161 3161 3162 3162 3164 3168 3171 3171 3171 3173 3174 3178 3181 3184 3187 3189 3192 3196 3198 3200 3203 3204 3205 3206 3207 3208 3208 3209 3211 3212 3213 3214 3215 3215 3214 3214 3213 3213 3213 3212 3211 3208 3207 3205
3146 3149 3150 3150 3154 3155 3155 3156 3157 3159 3163 3167 3168 3171 3173 3173 3175 3176 3181 3185 3187 3190 3193 3196 3199 3201 3202 3203 3204 3205 3206 3208 3209 3210 3211 3212 3213 3213 3213 3213 3212 3212 3212 3211 3209 3208 3207 3205 3203
3146 3148 3147 3146 3151 3155 3152 3152 3153 3154 3161 3164 3166 3167 3170 3173 3174 3176 3178 3182 3184 3186 3190 3193 3196 3198 3199 3200 3201 3203 3205 3206 3207 3208 3209 3210 3210 3211 3211 3211 3211 3211 3210 3210 3208 3208 3207 3205 3203
3142 3144 3141 3143 3148 3153 3150 3150 3150 3150 3152 3157 3161 3164 3167 3171 3172 3173 3174 3178 3180 3183 3186 3189 3192 3194 3197 3199 3200 3201 3203 3204 3205 3206 3207 3207 3206 3208 3208 3209 3209 3210 3209 3210 3210 3209 3208 3207 3205
3136 3138 3136 3143 3146 3148 3148 3148 3150 3153 3155 3157 3158 3160 3163 3165 3168 3170 3171 3172 3175 3178 3182 3186 3189 3192 3194 3196 3198 3200 3200 3201 3202 3204 3204 3204 3204 3205 3207 3207 3208 3209 3210 3210 3210 3210 3209 3207 3206
3129 3133 3136 3141 3145 3145 3147 3146 3147 3150 3152 3152 3153 3156 3158 3161 3163 3166 3167 3168 3170 3173 3179 3181 3185 3188 3189 3192 3194 3196 3198 3199 3200 3200 3201 3202 3202 3203 3205 3206 3208 3209 3210 3210 3210 3209 3209 3209 3207
3120 3132 3134 3138 3140 3143 3143 3144 3139 3145 3145 3148 3150 3151 3153 3156 3160 3162 3163 3164 3166 3169 3173 3177 3179 3182 3185 3188 3190 3192 3194 3196 3197 3197 3198 3199 3200 3202 3204 3205 3207 3208 3209 3210 3209 3210 3210 3209 3207
3125 3129 3131 3133 3135 3130 3131 3135 3129 3131 3135 3140 3144 3145 3147 3151 3154 3158 3161 3162 3164 3166 3169 3173 3175 3177 3181 3183 3186 3188 3190 3192 3193 3194 3195 3197 3199 3201 3202 3204 3206 3208 3208 3209 3209 3209 3210 3208 3206
3117 3122 3124 3125 3121 3116 3124 3126 3120 3122 3126 3130 3134 3137 3140 3145 3148 3152 3155 3157 3160 3161 3163 3167 3170 3173 3175 3178 3181 3183 3186 3188 3190 3191 3193 3195 3197 3199 3201 3202 3205 3206 3207 3208 3208 3209 3208 3207 3206
3106 3111 3112 3120 3117 3113 3117 3111 3109 3118 3121 3123 3126 3130 3134 3140 3142 3146 3148 3152 3154 3157 3159 3162 3165 3169 3171 3173 3176 3179 3181 3184 3186 3188 3190 3192 3195 3197 3199 3201 3202 3204 3205 3206 3207 3208 3207 3206 3204
3098 3099 3109 3109 3109 3110 3102 3104 3106 3112 3114 3116 3119 3124 3128 3133 3137 3139 3141 3145 3149 3151 3154 3157 3160 3164 3167 3169 3172 3174 3177 3179 3183 3185 3187 3189 3192 3195 3196 3198 3200 3202 3203 3204 3205 3205 3205 3204 3203
3088 3099 3100 3096 3101 3104 3095 3096 3092 3101 3105 3111 3112 3115 3116 3123 3128 3131 3135 3139 3143 3146 3149 3154 3156 3159 3163 3165 3167 3169 3173 3176 3179 3182 3184 3186 3190 3192 3194 3195 3198 3199 3201 3202 3203 3203 3203 3202 3201
3079 3081 3084 3088 3090 3091 3096 3076 3086 3094 3100 3103 3104 3104 3107 3111 3118 3124 3128 3133 3137 3141 3144 3148 3151 3154 3157 3160 3163 3165 3168 3172 3175 3178 3181 3183 3185 3188 3190 3192 3194 3196 3198 3198 3200 3200 3199 3198 3197
3069 3072 3077 3078 3079 3078 3078 3051 3081 3089 3096 3097 3097 3099 3102 3104 3110 3120 3124 3128 3133 3135 3139 3143 3145 3149 3153 3157 3159 3161 3163 3167 3171 3174 3177 3180 3182 3184 3186 3188 3190 3192 3194 3195 3195 3196 3195 3194 3192
Wind_Speed
10 12 12 5 4 2 6 13 14 10 6 4 11 16 11 16 11 14 33 28 30 33 35 31 31 30 30 28 28 27 23 22 19 16 14 13 13 13 13 12 12 12 11 11 12 12 13 13 13
5 4 9 5 5 5 8 13 14 9 7 6 13 8 13 16 5 34 35 31 35 35 32 30 29 29 27 26 24 23 22 20 17 15 13 13 13 13 13 13 12 12 11 11 12 13 13 13 12
6 4 4 5 7 7 14 15 13 14 11 9 6 13 13 20 30 30 30 34 35 30 30 30 28 26 25 23 22 22 20 17 15 14 13 13 12 12 12 11 11 12 12 12 13 14 15 16 14
5 15 6 2 3 9 16 17 10 13 9 2 8 18 28 27 21 26 28 30 29 28 28 27 26 24 24 23 21 20 18 16 15 14 13 12 12 10 9 10 11 12 12 11 12 13 14 14 11
11 10 4 8 2 6 13 16 5 9 5 12 18 28 27 26 25 26 27 28 27 27 26 25 23 23 22 21 21 19 17 16 14 13 12 11 10 8 10 10 11 11 12 12 12 11 12 13 11
15 15 7 7 2 13 18 7 3 4 9 17 14 25 28 24 24 25 25 25 25 23 24 23 22 21 21 20 19 18 17 15 13 12 10 10 9 10 10 9 9 10 12 11 11 11 11 10 10
6 15 9 9 2 19 18 7 8 7 10 11 16 25 28 24 23 24 24 23 24 22 21 22 21 21 20 19 18 17 16 14 12 10 8 8 8 8 8 8 9 9 11 12 10 10 7 7 8
5 6 11 9 9 19 15 12 7 2 12 15 12 11 22 26 23 22 24 24 23 22 21 20 20 19 19 19 18 16 15 13 10 8 7 7 6 6 6 7 8 8 9 9 8 9 8 8 6
3 8 11 5 13 13 17 13 10 7 4 12 8 3 17 23 22 21 23 24 24 23 21 20 19 18 18 17 17 15 13 11 9 7 6 6 8 7 6 6 6 6 7 6 7 7 5 8 6
7 10 14 13 2 23 16 18 6 13 11 8 6 11 19 19 18 17 19 21 23 23 22 20 19 18 17 17 15 13 12 10 8 6 4 6 1 3 4 3 3 5 5 4 4 5 3 4 7
14 20 10 7 6 12 16 12 6 10 7 6 1 3 14 18 18 15 14 16 17 21 22 21 19 17 16 15 14 13 12 10 7 5 6 4 4 7 3 4 1 3 3 2 1 3 4 3 4
26 22 19 6 12 18 19 14 11 10 7 7 5 4 3 18 20 17 15 17 19 20 20 20 20 18 16 16 15 14 11 9 8 5 4 5 4 2 2 1 2 2 2 3 1 0 3 6 9
29 25 25 21 14 22 23 17 10 14 9 13 9 3 4 12 16 14 11 13 16 15 19 20 19 18 17 16 14 13 11 9 8 8 8 7 4 1 2 2 4 2 2 4 3 4 6 8 9
20 17 21 21 24 18 27 19 18 19 15 16 12 2 7 12 14 16 15 14 18 17 20 18 18 18 15 14 14 11 10 10 7 11 8 7 3 2 2 3 5 6 7 6 7 7 9 10 9
22 23 20 18 18 34 34 24 26 17 22 17 14 6 7 14 15 14 13 15 14 14 15 20 17 16 15 13 13 9 9 9 7 9 6 4 2 3 2 6 7 8 10 5 8 7 10 10 13
20 19 20 10 6 35 35 30 20 23 22 22 16 8 7 13 15 15 12 11 12 13 13 17 17 15 14 11 10 8 7 7 5 4 5 3 5 5 6 7 8 10 11 7 7 8 9 9 14
24 23 17 15 16 24 37 23 27 25 24 25 20 13 10 15 19 18 16 14 13 12 13 15 15 13 12 10 10 10 8 7 7 6 6 5 6 4 8 7 8 9 10 9 9 8 9 10 11
29 23 21 21 10 18 38 26 31 26 31 26 19 19 9 16 18 21 19 20 18 15 14 13 15 15 12 11 12 13 12 10 9 9 8 8 8 9 9 9 8 10 8 9 8 9 10 11 11
31 25 26 25 17 14 33 27 29 29 32 28 24 24 18 10 16 21 23 27 25 21 18 18 17 14 14 13 11 11 10 10 10 7 11 10 11 11 10 10 8 6 6 6 9 11 13 11 11
32 30 33 30 21 19 32 28 30 34 33 31 26 26 23 16 19 20 22 24 23 20 19 19 18 17 14 13 13 13 12 12 13 13 13 14 12 9 10 6 4 4 6 6 8 12 13 14 13
34 37 37 31 17 17 31 32 37 39 38 32 30 29 26 25 17 17 26 27 24 23 21 18 18 18 16 15 16 16 16 14 13 12 11 10 9 7 6 1 4 6 5 5 8 11 13 15 16
35 42 41 34 26 22 19 11 33 39 42 38 34 37 33 32 26 21 15 26 30 27 23 23 21 20 18 18 18 16 15 13 11 11 7 7 8 5 4 7 6 5 5 5 6 9 13 17 21
40 32 35 33 33 32 32 20 26 28 49 46 44 45 36 35 33 23 15 14 15 21 25 24 23 22 22 21 19 16 16 14 13 13 10 9 7 10 10 9 6 6 5 4 5 8 11 18 23
30 32 32 32 34 24 39 32 32 39 35 40 45 46 37 35 35 30 17 15 16 16 18 18 18 25 25 24 21 17 15 15 13 12 10 9 12 14 13 10 8 6 4 2 3 5 10 13 19
30 34 20 14 16 12 34 27 33 24 33 38 37 38 38 33 31 34 26 21 21 21 18 19 20 20 26 27 24 19 15 16 13 13 11 12 14 13 13 12 10 6 2 1 3 7 3 8 15
38 40 25 9 4 6 31 17 42 37 33 31 36 40 41 35 26 29 29 20 21 20 17 14 16 19 20 27 26 22 18 18 15 14 12 14 15 16 15 13 9 6 5 2 4 4 5 11 13
41 42 34 38 31 13 18 25 40 34 35 36 35 44 43 38 30 20 24 25 25 25 21 16 14 15 17 21 27 26 21 21 18 16 16 17 19 19 17 15 13 7 5 6 8 8 9 13 17
36 35 29 29 14 16 13 21 36 32 35 29 34 39 44 44 36 27 27 30 31 25 24 19 16 16 14 15 23 25 22 22 21 19 18 19 20 19 17 15 12 9 9 9 11 15 15 17 21
46 46 35 37 35 11 4 32 42 39 33 25 25 39 43 49 43 38 32 32 30 25 25 25 21 20 22 20 19 21 23 26 25 20 19 21 22 21 16 14 15 16 16 15 15 17 21 22 24
47 43 41 31 22 33 41 50 23 23 29 28 35 32 43 49 46 39 28 32 36 25 25 24 24 23 24 22 20 19 24 29 27 23 20 24 22 20 18 17 17 20 20 20 20 20 24 28 30
Wind_Direction
36 44 37 86 82 75 136 130 131 131 118 153 173 142 129 133 146 147 133 136 135 138 136 135 135 134 134 135 136 138 138 136 134 125 120 102 96 96 91 83 76 72 67 64 63 65 66 60 64
47 15 30 90 107 150 132 136 142 112 99 127 152 163 141 138 161 137 133 133 134 133 133 135 133 133 134 137 138 139 137 135 129 129 113 102 97 86 79 76 74 71 69 66 64 64 66 61 56
115 132 80 86 133 140 127 141 137 106 96 127 156 145 139 129 134 129 133 135 138 132 133 133 133 134 135 137 139 138 137 135 133 123 109 102 91 82 78 76 75 76 77 71 66 63 61 62 58
56 163 40 281 219 130 147 146 148 122 128 217 142 137 130 133 137 131 135 135 140 137 134 135 135 133 137 138 139 141 141 134 130 117 106 99 88 79 77 78 82 82 80 76 67 62 57 62 61
52 25 47 360 313 232 180 113 55 103 69 127 140 129 131 139 143 136 138 139 139 138 137 137 137 139 139 142 143 143 139 132 126 115 111 102 92 89 88 89 89 81 77 77 73 64 58 58 57
37 3 6 38 319 149 160 114 20 135 83 139 157 141 134 142 142 143 141 141 142 142 140 143 144 143 144 143 143 142 137 133 126 121 115 101 99 94 102 100 92 79 74 73 73 64 54 47 38
17 15 33 59 158 164 154 165 121 126 96 125 167 147 142 150 151 149 143 144 146 146 147 148 148 148 144 144 145 141 139 135 132 128 115 103 95 98 106 96 87 81 77 75 67 62 55 41 32
11 11 12 120 129 174 167 151 127 91 102 105 147 172 159 154 161 159 150 150 150 151 153 154 153 148 148 148 145 146 143 139 138 131 114 94 87 98 92 91 81 76 75 71 63 52 31 33 21
325 76 79 110 116 159 157 153 152 144 93 121 135 151 162 157 166 164 159 158 157 156 159 160 157 156 154 151 151 152 150 149 151 135 112 106 103 70 69 69 82 64 54 58 41 55 44 9 4
222 215 104 135 311 171 183 176 190 167 153 155 170 146 173 172 176 172 170 165 164 162 163 167 164 165 161 159 158 160 160 160 154 138 124 107 97 116 91 78 92 70 54 68 27 62 33 5 353
248 240 238 163 159 175 180 183 175 178 195 249 51 237 177 177 180 180 167 179 169 171 172 168 172 172 172 170 170 173 175 168 165 165 147 154 104 162 80 90 63 74 41 22 343 1 16 33 5
255 261 277 196 155 189 203 201 199 231 302 234 207 356 175 186 184 178 181 173 188 182 178 173 177 180 180 183 183 183 180 183 183 183 165 177 162 124 281 6 319 6 354 297 45 347 23 8 9
250 263 271 265 252 195 193 206 233 213 224 210 221 301 245 182 176 175 180 178 182 185 187 177 186 184 191 195 195 191 189 196 206 197 206 187 171 110 233 319 320 330 332 328 355 14 9 353 359
237 263 274 267 260 210 194 192 212 205 224 207 226 259 215 197 179 171 181 186 176 174 183 191 183 180 197 199 209 207 203 206 201 199 220 202 145 316 326 308 334 342 342 343 347 357 352 347 345
254 274 269 254 277 213 191 203 201 225 217 218 218 225 208 198 188 188 167 180 187 180 184 191 189 184 192 195 220 217 206 202 202 199 199 192 208 250 268 303 317 319 328 329 351 347 338 346 343
244 261 277 220 272 186 186 183 201 204 214 217 215 224 247 210 200 194 196 189 193 189 181 195 189 190 194 192 198 226 227 231 224 224 227 252 245 265 276 277 299 312 321 328 328 332 334 334 335
237 253 244 226 180 213 192 213 199 203 211 211 207 220 242 220 202 200 202 206 211 204 194 191 197 201 203 200 203 227 237 256 262 268 261 281 203 258 273 289 301 305 313 330 324 333 331 330 330
223 234 234 237 220 215 202 221 185 195 208 213 228 216 222 216 212 210 208 213 217 208 201 208 203 206 208 218 217 224 235 239 249 255 250 223 244 262 265 276 299 303 323 333 353 11 3 354 341
225 230 235 215 243 283 211 202 197 204 205 218 233 229 228 242 211 217 212 217 225 225 215 205 208 210 214 227 238 244 247 245 253 251 240 238 251 266 252 268 282 312 353 33 25 19 9 359 348
219 226 229 237 241 279 212 211 205 202 211 221 233 233 241 236 217 215 223 222 226 224 217 218 216 220 224 226 231 237 241 235 238 246 252 252 256 241 249 258 291 85 90 51 30 33 27 22 16
223 224 234 242 251 277 209 193 192 200 211 217 231 253 249 245 250 227 222 226 228 223 223 226 224 224 226 228 230 227 233 235 243 255 275 247 236 246 247 157 135 110 87 53 39 42 36 34 29
231 220 234 249 261 272 217 220 206 211 210 212 232 240 242 239 246 258 241 231 230 229 224 230 230 229 231 231 232 234 240 243 244 249 253 247 216 173 176 140 141 129 102 80 55 47 39 35 29
229 230 239 250 255 257 249 246 252 233 223 228 239 234 238 241 239 252 263 259 243 236 235 233 236 234 231 232 232 235 238 240 239 246 249 250 200 169 156 154 160 135 105 64 45 39 42 50 38
230 234 239 253 253 248 250 251 236 228 233 229 219 227 234 235 234 244 259 267 269 252 236 230 232 236 234 233 231 235 236 233 238 238 241 230 188 174 173 159 159 150 117 57 25 46 61 48 35
228 230 234 249 234 238 251 239 231 252 231 222 225 227 231 225 233 239 243 248 253 246 232 229 232 237 232 233 234 229 227 226 225 227 225 212 193 182 167 167 175 165 175 111 24 33 52 354 1
227 229 216 213 215 257 249 230 237 244 246 243 235 232 231 221 223 231 243 243 237 240 225 215 220 233 236 231 234 229 221 218 219 222 215 205 189 179 176 179 191 187 220 283 328 344 312 307 331
228 229 239 236 245 272 257 253 257 250 245 245 243 230 230 220 215 240 248 242 231 235 223 202 206 218 231 233 231 229 218 211 211 217 201 197 192 183 182 189 206 215 232 277 306 316 298 313 319
231 232 226 220 222 238 248 248 242 244 246 244 251 240 235 217 218 238 237 234 233 231 230 221 204 207 213 231 234 230 219 206 209 213 201 195 193 192 188 192 207 231 247 265 290 300 304 308 311
225 233 230 233 229 229 240 252 244 240 243 256 268 252 236 222 220 224 237 222 227 230 231 228 217 206 208 216 228 229 217 201 207 206 204 196 194 196 201 209 219 235 254 271 284 297 309 307 303
228 233 232 221 215 230 233 248 246 245 253 269 269 260 234 226 225 221 224 221 221 218 218 220 219 209 213 216 222 227 214 204 206 203 203 196 196 197 208 221 230 239 251 267 283 295 301 308 304